This demonstration page uses our WeatherBlox Daily Observations layout. Learn more.

Left ArrowRight Arrow

Hourly Observations for November 8, 2016

Temp ( °F °C ) Dew Point ( °F °C ) Humidity (%) Winds ( mph kmh ) Pressure ( in mb ) Visibility ( mi km ) Precip ( " mm )
12:59 am 00:59 Clear 41 5 38 3.3 89 89 Calm 30.34 1027 10 16 0.00 0.00
1:59 am 01:59 Clear 41 5 38 3.3 89 89 Calm 30.33 1027 10 16 0.00 0.00
2:59 am 02:59 Clear 43 6.1 39 3.9 86 86 Calm 30.31 1026 10 16 0.00 0.00
3:59 am 03:59 Clear 44 6.7 40 4.4 85 85 WNW 9 15 30.30 1026 10 16 0.00 0.00
4:59 am 04:59 Clear 47 8.3 43 6.1 86 86 NW 8 13 30.30 1026 10 16 0.00 0.00
5:59 am 05:59 Clear 47 8.3 41 5 80 80 NW 8 13 30.30 1026 10 16 0.00 0.00
6:59 am 06:59 Sunny 47 8.3 41 5 80 80 W 5 7 30.29 1026 10 16 0.00 0.00
7:59 am 07:59 Sunny 51 10.6 43 6.1 74 74 WNW 8 13 30.29 1026 10 16 0.00 0.00
8:59 am 08:59 Sunny 53 11.7 40 4.4 61 61 W 5 7 30.29 1026 10 16 0.00 0.00
9:59 am 09:59 Mostly Sunny 56 13.3 42 5.6 60 60 W 7 11 30.27 1025 10 16 0.00 0.00
10:59 am 10:59 Mostly Sunny 58 14.4 41 5 53 53 W 8 13 30.25 1024 10 16 0.00 0.00
11:59 am 11:59 Mostly Sunny 61 16.1 37 2.8 41 41 W 7 11 30.22 1023 10 16 0.00 0.00
12:59 pm 12:59 Partly Cloudy 64 17.8 37 2.8 37 37 WNW 9 15 30.19 1022 10 16 0.00 0.00
1:59 pm 13:59 Partly Cloudy 65 18.3 37 2.8 36 36 W 7 11 30.16 1021 10 16 0.00 0.00
2:59 pm 14:59 Partly Cloudy 64 17.8 38 3.3 38 38 W 5 7 30.14 1021 10 16 0.00 0.00
3:59 pm 15:59 Partly Cloudy 65 18.3 38 3.3 37 37 WSW 3 6 30.12 1020 10 16 0.00 0.00
4:59 pm 16:59 Partly Cloudy 56 13.3 43 6.1 62 62 VRB 5 7 30.11 1020 10 16 0.00 0.00
5:59 pm 17:59 Mostly Cloudy 52 11.1 44 6.7 75 75 S 3 6 30.10 1019 10 16 0.00 0.00
6:59 pm 18:59 Partly Cloudy 50 10 43 6.1 77 77 SSW 6 9 30.10 1019 10 16 0.00 0.00
7:59 pm 19:59 Mostly Clear 51 10.6 42 5.6 71 71 SW 3 6 30.10 1019 10 16 0.00 0.00
8:59 pm 20:59 Mostly Cloudy 55 12.8 43 6.1 64 64 Calm 30.09 1019 10 16 0.00 0.00
9:59 pm 21:59 Partly Cloudy 56 13.3 42 5.6 60 60 SW 8 13 30.08 1019 10 16 0.00 0.00
10:59 pm 22:59 Clear 55 12.8 42 5.6 62 62 SW 6 9 30.06 1018 10 16 0.00 0.00
11:59 pm 23:59 Clear 54 12.2 43 6.1 67 67 SW 5 7 30.03 1017 10 16 0.00 0.00

Powered by AerisWeather